Regional Weather Roundup
Issued by NWS

Current Version | Previous Version | Text Only | Print | Product List | Glossary On
Versions: 1 2 3 4 5 6 7 8 9 10 11 12 13 14 15 16 17 18 19 20 21 22 23 24 25 26 27 28 29 30 31 32 33 34 35 36 37 38 39 40 41 42 43 44 45 46 47 48 49 50
591
ASPQ40 PGUM 222012
RWRPQ
WEATHER ROUNDUP FOR THE MARIANAS AND MICRONESIA
NATIONAL WEATHER SERVICE TIYAN GU
600 AM CHST TUE JAN 23 2018

GUZ001>004-222100-
MARIANA ISLANDS-

CITY           SKY/WX    TMP DP  RH WIND       PRES   REMARKS
GUAM AIRPORT   PTCLDY    81  73  78 E10       29.81S
ANDERSEN AFB   MOCLDY    79  72  78 E15G23    29.82R
ROTA AIRPORT   PTCLDY    79  72  78 E10G22    29.82
TINIAN AP      PTCLDY    79  73  83 E13       29.81
SAIPAN AP      LGT RAIN  81  75  83 E15       29.82R

$$

PMZ161-222100-
REPUBLIC OF PALAU-

CITY           SKY/WX    TMP DP  RH WIND       PRES   REMARKS
KOROR AP       NOT AVBL
KOROR WSO      HVY RAIN  79  77  94 S12       29.70R

$$

PMZ171>174-222100-
FEDERATED STATES OF MICRONESIA-

CITY           SKY/WX    TMP DP  RH WIND       PRES   REMARKS
YAP AIRPORT    LGT RAIN  79  77  94 VRB5      29.70R
CHUUK AP       LGT RAIN  81  77  89 NE8       29.72R
POHNPEI AP     NOT AVBL
POHNPEI WSO    CLOUDY    81  73  78 E8        29.76R
KOSRAE AP      NOT AVBL

$$

PMZ181-222100-
REPUBLIC OF THE MARSHALL ISLANDS-

CITY           SKY/WX    TMP DP  RH WIND       PRES   REMARKS
KWAJALEIN AP   MOSUNNY   79  75  89 NE16      29.75R
MAJURO AP      NOT AVBL
MAJURO WSO     PTSUNNY   82  75  78 E10       29.72R

$$





USA.gov is the U.S. government's official web portal to all federal, state and local government web resources and services.